Cadillac, MI

1:08 AM EDT on June 23, 2017 (GMT -0400)
Wexford County

Weather History for KCAD - March, 2013

Change the Weather History Date:

Monday, March 4, 2013

  Actual Average Record
Temperature  
Mean Temperature 18 °F -  
Max Temperature 32 °F 33 °F 60 °F (1974)
Min Temperature 3 °F 15 °F -12 °F (1982)
Degree Days  
Heating Degree Days 48    
Moisture  
Dew Point 12 °F    
Average Humidity 68    
Maximum Humidity 85    
Minimum Humidity 43    
Precipitation  
Precipitation 0.00 in - - ()
Sea Level Pressure  
Sea Level Pressure 30.06 in    
Wind  
Wind Speed 2 mph (North)    
Max Wind Speed 9 mph    
Max Gust Speed -    
Visibility 10 miles    
Events Snow    
Averages and records for this station are not official NWS values.
T = Trace of Precipitation, MM = Missing Value Source: NWS Daily Summary

Daily Weather History Graph

Daily Weather History Graph

Search for Another Location

Airport or City:

Trip Planner

Search our weather history database for the weather conditions in past years. The results will help you decide how hot, cold, wet, or windy it might be!

Date:

Astronomy

Mar. 04, 2013 Rise Set
Actual Time 7:13 AM EST 6:34 PM EST
Civil Twilight 6:44 AM EST 7:03 PM EST
Nautical Twilight 6:10 AM EST 7:36 PM EST
Astronomical Twilight 5:37 AM EST 8:10 PM EST
Moon 1:31 AM EST (3/4) 11:05 AM EST (3/4)
Length of Visible Light 12h 18m
Length of Day
11h 20m
Waning Gibbous, 52% of the Moon is Illuminated
Mar 4
Waning Gibbous
Mar 4
Last Quarter
Mar 11
New
Mar 19
First Quarter
Mar 27
Full

Hourly Weather History & Observations

Time (EST) Temp. Windchill Dew Point Humidity Pressure Visibility Wind Dir Wind Speed Gust Speed Precip Events Conditions
12:14 AM 3.0 °F - -2.2 °F 79% 30.03 in 10.0 mi Calm Calm - N/A   Overcast
12:35 AM 4.5 °F - -1.3 °F 77% 30.03 in 10.0 mi Calm Calm - N/A Snow Light Snow
12:55 AM 5.7 °F - 1.2 °F 82% 30.03 in 10.0 mi Calm Calm - N/A   Overcast
1:14 AM 8.6 °F - 4.1 °F 82% 30.03 in 10.0 mi Calm Calm - N/A   Overcast
1:35 AM 13.8 °F - 10.0 °F 85% 30.03 in 10.0 mi Calm Calm - N/A   Overcast
1:55 AM 16.5 °F 6.9 °F 12.2 °F 83% 30.03 in 10.0 mi NNW 6.9 mph - N/A   Overcast
2:35 AM 16.5 °F 5.1 °F 12.2 °F 83% 30.03 in 10.0 mi NNE 9.2 mph - N/A   Overcast
2:55 AM 16.3 °F 6.7 °F 12.2 °F 84% 30.03 in 10.0 mi NNE 6.9 mph - N/A   Overcast
3:14 AM 16.3 °F 6.7 °F 12.2 °F 84% 30.03 in 10.0 mi North 6.9 mph - N/A   Overcast
3:35 AM 16.3 °F 6.7 °F 12.2 °F 84% 30.03 in 10.0 mi North 6.9 mph - N/A   Overcast
3:55 AM 16.3 °F - 12.2 °F 84% 30.03 in 10.0 mi Calm Calm - N/A   Overcast
4:14 AM 17.4 °F 12.1 °F 13.1 °F 83% 30.05 in 10.0 mi NNW 3.5 mph - N/A   Overcast
4:35 AM 17.4 °F 8.0 °F 12.9 °F 83% 30.05 in 10.0 mi NW 6.9 mph - N/A   Overcast
4:55 AM 17.6 °F 8.2 °F 13.1 °F 83% 30.05 in 10.0 mi NW 6.9 mph - N/A   Overcast
5:15 AM 17.4 °F 9.1 °F 12.9 °F 83% 30.06 in 10.0 mi NNW 5.8 mph - N/A   Overcast
5:35 AM 17.6 °F 12.3 °F 12.7 °F 81% 30.06 in 10.0 mi NNW 3.5 mph - N/A   Overcast
5:55 AM 18.9 °F - 13.6 °F 80% 30.06 in 10.0 mi Calm Calm - N/A   Overcast
6:15 AM 18.9 °F - 13.1 °F 78% 30.06 in 10.0 mi Calm Calm - N/A   Overcast
6:35 AM 17.8 °F - 12.6 °F 80% 30.06 in 10.0 mi Calm Calm - N/A   Overcast
6:54 AM 16.3 °F - 12.2 °F 84% 30.06 in 10.0 mi Calm Calm - N/A   Scattered Clouds
7:15 AM 12.4 °F - 8.2 °F 83% 30.06 in 10.0 mi Calm Calm - N/A   Clear
7:35 AM 11.3 °F - 7.5 °F 85% 30.07 in 10.0 mi Calm Calm - N/A   Clear
7:54 AM 9.0 °F 2.4 °F 5.2 °F 85% 30.07 in 10.0 mi SW 3.5 mph - N/A   Clear
8:15 AM 11.3 °F - 5.9 °F 79% 30.08 in 10.0 mi Calm Calm - N/A   Clear
8:35 AM 12.6 °F - 8.4 °F 83% 30.08 in 10.0 mi Calm Calm - N/A   Clear
8:54 AM 13.8 °F - 9.1 °F 82% 30.08 in 10.0 mi Calm Calm - N/A   Clear
9:15 AM 19.0 °F - 12.7 °F 76% 30.08 in 10.0 mi Calm Calm - N/A   Mostly Cloudy
9:34 AM 21.2 °F 12.6 °F 14.0 °F 74% 30.08 in 10.0 mi NNW 6.9 mph - N/A   Mostly Cloudy
9:55 AM 21.2 °F 13.6 °F 13.8 °F 73% 30.08 in 10.0 mi North 5.8 mph - N/A   Scattered Clouds
10:15 AM 21.6 °F 15.3 °F 12.7 °F 69% 30.08 in 10.0 mi North 4.6 mph - N/A   Clear
10:34 AM 22.6 °F 16.5 °F 13.3 °F 67% 30.08 in 10.0 mi NNW 4.6 mph - N/A   Clear
10:55 AM 22.6 °F 16.5 °F 12.4 °F 65% 30.08 in 10.0 mi NNW 4.6 mph - N/A   Clear
11:15 AM 23.9 °F 15.8 °F 12.9 °F 63% 30.08 in 10.0 mi NNW 6.9 mph - N/A   Clear
11:34 AM 23.9 °F 16.8 °F 12.9 °F 63% 30.08 in 10.0 mi NW 5.8 mph - N/A   Clear
11:55 AM 25.0 °F - 12.4 °F 59% 30.08 in 10.0 mi Calm Calm - N/A   Clear
12:15 PM 26.4 °F 20.9 °F 12.2 °F 55% 30.08 in 10.0 mi North 4.6 mph - N/A   Clear
12:34 PM 28.9 °F 23.9 °F 13.5 °F 52% 30.08 in 10.0 mi West 4.6 mph - N/A   Clear
12:55 PM 28.9 °F 23.9 °F 12.4 °F 50% 30.08 in 10.0 mi North 4.6 mph - N/A   Clear
1:15 PM 28.9 °F 25.2 °F 12.7 °F 51% 30.07 in 10.0 mi WNW 3.5 mph - N/A   Clear
1:55 PM 31.5 °F 28.1 °F 13.6 °F 48% 30.05 in 10.0 mi NW 3.5 mph - N/A   Clear
2:15 PM 31.5 °F - 14.2 °F 49% 30.05 in 10.0 mi Calm Calm - N/A   Clear
2:35 PM 31.5 °F - 13.3 °F 47% 30.05 in 10.0 mi Calm Calm - N/A   Clear
2:55 PM 32.0 °F - 11.8 °F 43% 30.04 in 10.0 mi Calm Calm - N/A   Clear
3:14 PM 32.4 °F - 12.7 °F 44% 30.04 in 10.0 mi Calm Calm - N/A   Clear
3:35 PM 31.5 °F - 12.6 °F 46% 30.04 in 10.0 mi Calm Calm - N/A   Clear
3:55 PM 31.5 °F - 12.0 °F 45% 30.04 in 10.0 mi Calm Calm - N/A   Clear
4:35 PM 31.5 °F 28.1 °F 11.8 °F 44% 30.04 in 10.0 mi NE 3.5 mph - N/A   Clear
4:55 PM 31.5 °F 28.1 °F 12.4 °F 45% 30.04 in 10.0 mi North 3.5 mph - N/A   Clear
5:14 PM 31.5 °F 26.8 °F 14.0 °F 49% 30.04 in 10.0 mi North 4.6 mph - N/A   Clear
5:35 PM 31.5 °F 26.8 °F 14.5 °F 50% 30.04 in 10.0 mi NNE 4.6 mph - N/A   Clear
5:55 PM 31.5 °F 25.8 °F 15.8 °F 52% 30.04 in 10.0 mi North 5.8 mph - N/A   Clear
6:14 PM 28.9 °F 25.2 °F 14.2 °F 54% 30.04 in 10.0 mi North 3.5 mph - N/A   Clear
6:35 PM 28.9 °F 23.9 °F 15.6 °F 58% 30.04 in 10.0 mi North 4.6 mph - N/A   Clear
6:54 PM 27.1 °F 21.8 °F 14.4 °F 59% 30.03 in 10.0 mi North 4.6 mph - N/A   Clear
7:15 PM 26.4 °F 22.4 °F 14.0 °F 59% 30.05 in 10.0 mi North 3.5 mph - N/A   Clear
7:34 PM 24.8 °F 20.5 °F 13.1 °F 61% 30.05 in 10.0 mi NW 3.5 mph - N/A   Clear
7:55 PM 24.3 °F 19.9 °F 13.3 °F 63% 30.05 in 10.0 mi NNW 3.5 mph - N/A   Clear
8:15 PM 22.8 °F - 12.9 °F 66% 30.06 in 10.0 mi Calm Calm - N/A   Clear
8:35 PM 22.6 °F - 13.1 °F 67% 30.06 in 10.0 mi Calm Calm - N/A   Clear
8:55 PM 21.2 °F - 12.9 °F 70% 30.06 in 10.0 mi Calm Calm - N/A   Clear
9:34 PM 21.2 °F - 13.1 °F 71% 30.07 in 10.0 mi Calm Calm - N/A   Clear
9:55 PM 21.2 °F - 12.7 °F 70% 30.07 in 10.0 mi Calm Calm - N/A   Clear
10:15 PM 20.3 °F 15.4 °F 11.8 °F 70% 30.07 in 10.0 mi NNE 3.5 mph - N/A   Clear
10:34 PM 20.1 °F - 12.2 °F 71% 30.07 in 10.0 mi Calm Calm - N/A   Clear
10:55 PM 18.9 °F 13.7 °F 11.3 °F 72% 30.07 in 10.0 mi NNE 3.5 mph - N/A   Clear
11:15 PM 18.9 °F 12.1 °F 10.9 °F 71% 30.07 in 10.0 mi NNE 4.6 mph - N/A   Clear
11:34 PM 18.9 °F - 11.1 °F 72% 30.08 in 10.0 mi Calm Calm - N/A   Clear
11:55 PM 18.9 °F 12.1 °F 10.9 °F 71% 30.08 in 10.0 mi NNE 4.6 mph - N/A   Clear